{"data":{"norad_id":55581,"epoch":"2026-05-25T03:17:18.019104Z","epoch_age_seconds":66411,"freshness":"FRESH","line1":"1 55581U 23020N   26145.13701411 -.00000198  00000+0  23411-5 0  9991","line2":"2 55581  43.0028 300.3554 0001093 272.4842  87.5884 15.27574620180520","mean_motion":15.2757462,"eccentricity":0.0001093,"inclination_deg":43.0028,"raan_deg":300.3554,"arg_perigee_deg":272.4842,"mean_anomaly_deg":87.5884,"bstar":2.3411e-6,"rev_number":18052,"period_min":94.26708071387,"perigee_km":482.31527634129,"apogee_km":483.81513514347,"semimajor_km":6861.2022057424,"source":"CELESTRAK","updated_at":"2026-05-25T13:38:17.836761Z"}}